Regional Weather Roundup
Issued by NWS

Home | Current Version | Previous Version | Graphics & Text | Print | Product List | Glossary On
Versions: 1 2 3 4 5 6 7 8 9 10 11 12 13 14 15 16 17 18 19 20 21 22 23 24 25 26 27 28 29 30 31 32 33 34 35 36 37 38 39 40 41 42 43 44 45 46 47 48 49 50
000
ASUS43 KDTX 260610
RWRMI
MICHIGAN HOURLY REGIONAL WEATHER ROUNDUP
NATIONAL WEATHER SERVICE DETROIT/PONTIAC MI
200 AM EDT THU MAY 26 2016

NOTE: "FAIR" INDICATES FEW OR NO CLOUDS BELOW 12,000 FEET WITH NO
SIGNIFICANT WEATHER AND/OR OBSTRUCTION TO VISIBILITY.

MIZ047>049-052>055-059>063-066>070-074>076-081>083-260700-
SOUTHEAST LOWER MICHIGAN

CITY           SKY/WX    TMP DP  RH WIND       PRES   REMARKS
ADRIAN         CLOUDY    71  61  70 SW8       30.00R
6HR MIN TEMP:  71; 6HR MAX TEMP:  80;

ALMA           CLOUDY    67  62  83 W21G26    29.99R
ANN ARBOR      MOCLDY    70  60  70 S7        29.98F
BAD AXE        MOCLDY    67  58  74 S7        29.97S
CARO           CLEAR     66  58  75 SE3       29.95S
DETROIT CITY   CLOUDY    73  59  61 S13       29.98F
6HR MIN TEMP:  72; 6HR MAX TEMP:  79; 6HR PCP: TRACE;

DETROIT        CLOUDY    70  61  73 S7        29.99F
6HR MIN TEMP:  70; 6HR MAX TEMP:  79; 6HR PCP: TRACE;

FLINT          PTCLDY    73  59  61 S9        29.96S
6HR MIN TEMP:  71; 6HR MAX TEMP:  84;

GROSSE ILE     CLOUDY    66  63  88 S6        29.98F
HILLSDALE      MOCLDY    69  63  79 S6        30.00S
HOWELL         PTCLDY    71  58  64 S7        29.97F

CITY           SKY/WX    TMP DP  RH WIND       PRES   REMARKS
JACKSON        LGT RAIN  70  61  73 NW14      30.00R
6HR MIN TEMP:  69; 6HR MAX TEMP:  80; 6HR PCP: TRACE;

LAMBERTVILLE   PTCLDY    73  61  66 S6        30.00S
6HR MIN TEMP:  73; 6HR MAX TEMP:  80;

LANSING        RAIN      66  63  88 W13       30.00R
6HR MIN TEMP:  66; 6HR MAX TEMP:  80; 6HR PCP: TRACE;

LAPEER         FAIR      70  57  63 S7        29.97F
6HR MIN TEMP:  69; 6HR MAX TEMP:  81;

MASON          CLOUDY    69  62  77 W9G21     29.99R
MONROE         CLOUDY    69  63  82 S8        29.99S
6HR MIN TEMP:  67; 6HR MAX TEMP:  77; 6HR PCP:  0.10;

MT. CLEMENS    CLOUDY    66  62  85 S7        29.97F
6HR MIN TEMP:  66; 6HR MAX TEMP:  76; 6HR PCP: TRACE;

PONTIAC        PTCLDY    71  60  68 S6        29.97F
6HR MIN TEMP:  71; 6HR MAX TEMP:  80;

PORT HOPE        N/A     62  56  80 SE6       29.95F
6HR MIN TEMP:  59; 6HR MAX TEMP:  62;

PORT HURON     MOCLDY    68  59  73 S6        29.99F
TRI CITIES     CLOUDY    63  58  83 NE5       29.95F
6HR MIN TEMP:  62; 6HR MAX TEMP:  69;

MIDLAND        FAIR      61  56  84 W6        29.95R
6HR MIN TEMP:  60; 6HR MAX TEMP:  69;

TROY           CLOUDY    75  60  59 S7        30.00F
SAGINAW HB     PTCLDY    63  55  77 CALM      29.93F
$$
MIZ043>046-050>051-056>058-064>065-071>073-077>080-260700-
SOUTHWEST LOWER MICHIGAN

CITY           SKY/WX    TMP DP  RH WIND       PRES   REMARKS
BATTLE CREEK   LGT RAIN  65  63  93 W14       30.02S
6HR MIN TEMP:  65; 6HR MAX TEMP:  78; 6HR PCP:  0.65;

BENTON HARBOR  CLOUDY    65  62  90 SE10      29.94F
6HR MIN TEMP:  63; 6HR MAX TEMP:  82; 6HR PCP:  0.59;

BIG RAPIDS     LGT RAIN  64  64  97 SE3       29.97F
6HR MIN TEMP:  64; 6HR MAX TEMP:  71; 6HR PCP:  0.29;

COLDWATER      CLOUDY    68  63  83 NW5       30.01S
6HR MIN TEMP:  68; 6HR MAX TEMP:  80;

FREMONT        MOCLDY    63  63 100 CALM      29.94F
HOLLAND        CLOUDY    65  63  93 S9        29.95F
6HR MIN TEMP:  64; 6HR MAX TEMP:  82; 6HR PCP:  0.27;

GRAND RAPIDS   LGT RAIN  66  63  90 SE7       29.96F
6HR MIN TEMP:  66; 6HR MAX TEMP:  81; 6HR PCP:  0.33;

IONIA          RAIN      64  63  94 SW6       29.98F
6HR MIN TEMP:  64; 6HR MAX TEMP:  82; 6HR PCP:  0.16;

KALAMAZOO      LGT RAIN  65  60  84 VRB3      30.01S
6HR MIN TEMP:  65; 6HR MAX TEMP:  81; 6HR PCP:  0.42;

LUDINGTON      CLOUDY    62  61  98 S5        29.93F
6HR MIN TEMP:  61; 6HR MAX TEMP:  73; 6HR PCP:  0.09;

MARSHALL       CLOUDY    66  64  94 NW7       30.00F
6HR MIN TEMP:  66; 6HR MAX TEMP:  80; 6HR PCP:  0.31;

MOUNT PLEASANT LGT RAIN  62  57  84 W6        29.98R
6HR MIN TEMP:  61; 6HR MAX TEMP:  76;

MUSKEGON       CLOUDY    65  61  87 S7        29.92F
6HR MIN TEMP:  64; 6HR MAX TEMP:  82; 6HR PCP:  0.23;

SOUTH HAVEN    LGT RAIN  64  64  99 E6        29.96F
$$
MIZ016>042-260700-
NORTHERN LOWER MICHIGAN

CITY           SKY/WX    TMP DP  RH WIND       PRES   REMARKS
ALPENA         CLOUDY    58  52  80 E8        29.97F
6HR MIN TEMP:  58; 6HR MAX TEMP:  63;

BEAVER ISLAND  LGT RAIN  62  55  77 S3        29.95R
6HR MIN TEMP:  59; 6HR MAX TEMP:  66;

BELLAIRE       CLOUDY    66  58  73 SW6       29.96R
6HR MIN TEMP:  62; 6HR MAX TEMP:  71;

CADILLAC       RAIN      62  61  96 S5        29.96R
CHARLEVOIX     CLOUDY    66  56  71 SW13G22   29.99R
FRANKFORT      CLOUDY    65  64  96 CALM      29.90F
GAYLORD        LGT RAIN  62  54  74 CALM      29.95F
6HR MIN TEMP:  62; 6HR MAX TEMP:  72; 6HR PCP: TRACE;

GRAYLING       CLOUDY    59  57  91 SE3       29.96F
6HR MIN TEMP:  59; 6HR MAX TEMP:  70;

HARBOR SPRINGS CLOUDY    64  55  75 E10       29.92F
HOUGHTON LAKE  CLOUDY    59  56  89 S3        29.96F
6HR MIN TEMP:  58; 6HR MAX TEMP:  65; 6HR PCP: TRACE;

MANISTEE       CLOUDY    64  61  88 E5        29.92F
OSCODA         PTCLDY    58  52  82 E5        29.95F
6HR MIN TEMP:  57; 6HR MAX TEMP:  63;

PELLSTON       CLOUDY    63  55  75 SE7       29.94F
6HR MIN TEMP:  62; 6HR MAX TEMP:  69; 6HR PCP:  0.03;

ROGERS CITY    CLOUDY    62  53  72 SE10G16   29.98F
TRAVERSE CITY  LGT RAIN  66  64  93 CALM      29.93F
6HR MIN TEMP:  66; 6HR MAX TEMP:  72; 6HR PCP:  0.28;

$$
MIZ007>008-015-260700-
EASTERN UPPER MICHIGAN

CITY           SKY/WX    TMP DP  RH WIND       PRES   REMARKS
KINROSS          N/A     59  52  77 E9        29.97F
6HR MIN TEMP:  57; 6HR MAX TEMP:  72;

MACKINAC ISLAN CLOUDY    54  53  96 E12G18    29.95F
6HR MIN TEMP:  54; 6HR MAX TEMP:  64;

NEWBERRY       CLOUDY    61  54  77 E12       29.92F
6HR MIN TEMP:  61; 6HR MAX TEMP:  69;

S. S. MARIE    CLOUDY    59  52  77 E5        29.97F
6HR MIN TEMP:  58; 6HR MAX TEMP:  70;

MUNISING         N/A     48  46  93 N5        29.89F
6HR MIN TEMP:  48; 6HR MAX TEMP:  52; 6HR PCP:  0.02;

$$
MIZ004>006-011>014-085-260700-
CENTRAL UPPER MICHIGAN

CITY           SKY/WX    TMP DP  RH WIND       PRES   REMARKS
MANISTIQUE     HVY RAIN  59  57  95 E12       29.93R
6HR MIN TEMP:  59; 6HR MAX TEMP:  65; 6HR PCP:  0.10;

ESCANABA       CLOUDY    55  52  88 SE6       29.87F
6HR MIN TEMP:  55; 6HR MAX TEMP:  64; 6HR PCP:  0.01;

MENOMINEE      PTCLDY    57  57 100 CALM      29.86F
6HR MIN TEMP:  55; 6HR MAX TEMP:  59; 6HR PCP: 20.00;

SAWYER-GWINN   DRIZZLE   51  49  95 E6        29.88F
6HR MIN TEMP:  51; 6HR MAX TEMP:  56; 6HR PCP:  0.10;

$$
MIZ001>003-009>011-084-260700-
WESTERN UPPER MICHIGAN

CITY           SKY/WX    TMP DP  RH WIND       PRES   REMARKS
IRON MOUNTAIN  CLOUDY    59  58  96 SE7       29.84F
6HR MIN TEMP:  59; 6HR MAX TEMP:  63; 6HR PCP:  0.16;

HOUGHTON       RAIN      51  49  92 E9        29.89F FOG
6HR MIN TEMP:  48; 6HR MAX TEMP:  51; 6HR PCP:  0.42;

COPPER HARBOR    N/A     49  47  93 CALM      29.90F
6HR MIN TEMP:  46; 6HR MAX TEMP:  55; 6HR PCP:  0.08;

IRONWOOD       CLOUDY    54  54 100 W6        29.81S
6HR MIN TEMP:  48; 6HR MAX TEMP:  59; 6HR PCP:  0.63;

$$

ABBREVIATIONS USED IN REMARKS
   TC - TEMPERATURE IN CELSIUS
  WCI - WIND CHILL INDEX
   HX - HEAT INDEX
  VSB - VISIBILITY





USA.gov is the U.S. government's official web portal to all federal, state and local government web resources and services.